Regional Weather Roundup
Issued by NWS

Home | Current Version | Previous Version | Text Only | Print | Product List | Glossary Off
Versions: 1 2 3 4 5 6 7 8 9 10 11 12 13 14 15 16 17 18 19 20 21 22 23 24 25 26 27 28 29 30 31 32 33 34 35 36 37 38 39 40 41 42 43 44 45 46 47 48 49 50

000
ASUS43 KDMX 130408
RWRIA

WEATHER ROUNDUP FOR IOWA
NATIONAL WEATHER SERVICE DES MOINES IA
1000 PM CST FRI FEB 12 2016

NOTE: "FAIR" INDICATES FEW OR NO CLOUDS BELOW 12,000 FEET WITH NO
SIGNIFICANT WEATHER AND/OR OBSTRUCTIONS TO VISIBILITY.

* - THESE STATIONS ARE NOT NWS STATIONS...THUS NOT UNDER NWS
QUALITY CONTROL.  THEY ALSO DO NOT REPORT WEATHER SUCH
AS PRECIPITATION OR FOG.

IAZ001>003-012>014-020>022-031>034-043>046-130500-
   NORTHWEST IOWA

CITY           SKY/WX    TMP DP  RH WIND       PRES   REMARKS
CARROLL *      CLEAR      3  -2  78 NW8       30.62R WCI -10
CHEROKEE *     CLOUDY     3  -4  72 NW5       30.63S WCI  -6
DENISON *      CLEAR      5  -2  72 N8        30.61R WCI  -8
LE MARS *      CLEAR      5  -2  72 N5        30.65S WCI  -4
ORANGE CITY *  CLEAR      1  -4  78 N6        30.60F WCI -10
SHELDON *      CLEAR      0  -6  78 N7        30.59S WCI -13
SIOUX CITY     CLOUDY    10  -4  53 N10       30.64F WCI  -4
SPENCER        CLOUDY    -2  -9  72 NW8       30.61R WCI -17
STORM LAKE *   CLEAR      1  -4  78 N10       30.59S WCI -14
$$

IAZ055>058-069>071-079>083-090>094-130500-
   SOUTHWEST IOWA

CITY           SKY/WX    TMP DP  RH WIND       PRES   REMARKS
ATLANTIC *     CLEAR      9   0  66 N14       30.63S WCI  -8
AUDUBON *      CLEAR      5  -2  72 CALM      30.62R
CLARINDA *     PTCLDY    14   3  62 N14G20    30.66R WCI  -1
COUNCIL BLFS * PTCLDY    12   1  62 N12       30.63S WCI  -2
CRESTON *      CLEAR      9   0  66 N13       30.61R WCI  -7
HARLAN  *      CLEAR      9   0  66 N12       30.66S WCI  -6
LAMONI         CLOUDY    10   1  67 N10       30.59R WCI  -4
RED OAK *      CLOUDY    12   3  67 N13G18    30.64S WCI  -3
SHENANDOAH *   MOCLDY    14   3  62 N15       30.65S WCI  -1
$$

IAZ047>049-059>061-072>074-084-130500-
   CENTRAL IOWA

CITY           SKY/WX    TMP DP  RH WIND       PRES   REMARKS
AMES           CLOUDY     5  -3  69 NW14      30.63R WCI -12
ANKENY *       CLEAR      7  -2  66 NW12      30.64R WCI  -9
BOONE *        CLEAR      5  -4  66 NW8       30.60R WCI  -8
CHARITON *     CLEAR      7   0  72 NW8       30.60R WCI  -6
DES MOINES     CLOUDY     7  -2  66 N8        30.62R WCI  -6
GRINNELL*      CLOUDY     7   1  78 NW7       30.58R WCI  -5
KNOXVILLE *    PTCLDY     7  -2  66 NW8       30.60R WCI  -6
MARSHALLTOWN   CLOUDY     4  -2  76 NW9       30.58R WCI -10
NEWTON *       CLEAR      7   0  72 NW12      30.60R WCI  -9
PELLA *        CLOUDY     9   1  72 NW13      30.62R WCI  -7
$$

IAZ004>006-015-016-023>025-035-036-130500-
   NORTH CENTRAL IOWA

CITY           SKY/WX    TMP DP  RH WIND       PRES   REMARKS
ALGONA *       CLEAR      3  -2  78 NW15      30.58R WCI -15
CLARION *      CLEAR      1  -6  71 NW14      30.59R WCI -17
ESTHERVILLE    CLOUDY    -1  -7  75 NW13      30.58R WCI -19
FORT DODGE *   PTCLDY     1  -8  66 NW3       30.62R
MASON CITY     CLOUDY     1  -7  68 NW13      30.57R WCI -17
FOREST CITY *  CLEAR      1  -4  78 NW10      30.56R WCI -14
WEBSTER CITY * CLEAR      1  -6  71 NW12      30.59R WCI -15
IOWA FALLS *     N/A      1  -4  78 NW12      30.59R WCI -15
$$

IAZ007>011-017>019-026>030-037>042-050>054-066-130500-
   NORTHEAST IOWA

CITY           SKY/WX    TMP DP  RH WIND       PRES   REMARKS
CEDAR RAPIDS   CLEAR      7  -3  64 N14       30.54R WCI -10
CHARLES CITY * CLEAR      3  -9  55 NW13      30.56R WCI -14
CLINTON *      CLEAR      9  -3  58 NW15      30.52R WCI  -8
DECORAH *      CLEAR      1 -11  55 NW7       30.50S WCI -11
DUBUQUE        CLEAR      6  -6  57 N14       30.48R WCI -11
MONTICELLO *   CLEAR      7  -6  56 NW15      30.53R WCI -11
OELWEIN *      CLEAR      1  -9  60 NW14      30.53R WCI -17
WATERLOO       CLOUDY     2  -7  66 NW10      30.56R WCI -14
$$

IAZ064-065-067-068-078-130500-
   EAST CENTRAL IOWA

CITY           SKY/WX    TMP DP  RH WIND       PRES   REMARKS
DAVENPORT      CLEAR      8  -3  61 NW18      30.52R WCI -11
IOWA CITY      CLEAR      9  -3  58 NW8G20    30.58R WCI  -3
MT. PLEASANT * CLOUDY    12   3  67 NW13G18   30.56R WCI  -3
MUSCATINE *    CLEAR     10  -2  56 NW16      30.57R WCI  -7
QUAD CITIES    CLEAR     10  -3  55 NW16G23   30.53R WCI  -7
$$

IAZ062-063-075>077-085>089-095>099-130500-
   SOUTHEAST IOWA

CITY           SKY/WX    TMP DP  RH WIND       PRES   REMARKS
BURLINGTON     CLEAR     11   1  64 NW15      30.54R WCI  -5
FAIRFIELD *    CLEAR      9   0  66 NW10G16   30.57R WCI  -6
FORT MADISON * CLEAR     10   1  67 NW14      30.55R WCI  -5
KEOKUK *       CLEAR     12   3  67 NW9G16    30.56R WCI   0
OSKALOOSA *      N/A      9   3  78 NW12      30.60R WCI  -6
CENTERVILLE *  CLEAR      9   1  72 NW12      30.61R WCI  -6
OTTUMWA        CLOUDY     8   2  76 NW14      30.59R WCI  -8
WASHINGTON *   CLEAR      9   0  66 N13G18    30.57S WCI  -7
$$

ABBREVIATIONS USED IN REMARKS
   TC - TEMPERATURES IN CELSIUS
  WCI - WIND CHILL INDEX
   HX - HEAT INDEX
  VSB - VISIBILITY
$$




USA.gov is the U.S. government's official web portal to all federal, state and local government web resources and services.